Simultaneous Nadir Overpasses (SNOs) Predictions

Prediction of SNOs between NPP and TERRA Satellite Orbit:

Table of predicted SNOs for the next 14.0 days since TLE Epoch: 6/25/2016
Index Date (NPP) Time (NPP) Lat,Lon (NPP) SZA (NPP ) Date (TERRA) Time (TERRA) Lat,Lon (TERRA) SZA (TERRA ) Distance(km) Time Diff (sec)
1 06/27/2016 10:40:13 -68.51,-161.38 134.88 06/27/2016 10:41:17 -68.50,-161.33 134.90 2.34 64
2 06/27/2016 11:30:56 68.33, 6.17 44.94 06/27/2016 11:30:45 68.33, 6.10 44.94 2.55 11
3 06/27/2016 12:21:32 -67.93, 173.99 135.47 06/27/2016 12:20:20 -67.95, 173.29 135.43 29.38 72
4 06/30/2016 02:57:06 -68.43, -45.51 134.81 06/30/2016 02:57:47 -68.46, -45.50 134.79 3.12 41
5 06/30/2016 03:47:50 68.31, 121.96 45.07 06/30/2016 03:47:15 68.28, 121.93 45.05 2.75 35
6 07/02/2016 18:23:28 69.09, -97.94 46.06 07/02/2016 18:24:37 69.02, -96.56 45.95 55.26 69
7 07/02/2016 19:13:59 -68.41, 70.29 134.64 07/02/2016 19:14:16 -68.42, 70.33 134.63 1.65 17
8 07/02/2016 20:04:42 68.24,-122.18 45.19 07/02/2016 20:03:44 68.24,-122.24 45.20 2.71 58
9 07/05/2016 10:40:11 68.49, 18.65 45.69 07/05/2016 10:41:16 68.47, 18.63 45.65 2.80 65
10 07/05/2016 11:30:52 -68.34,-173.85 134.46 07/05/2016 11:30:46 -68.37,-173.85 134.44 3.21 6
11 07/05/2016 12:21:30 67.90, -5.98 45.09 07/05/2016 12:20:18 67.97, -6.68 45.17 30.17 72
12 07/08/2016 02:57:04 68.43, 134.50 45.91 07/08/2016 02:57:46 68.41, 134.45 45.89 2.77 42
13 07/08/2016 03:47:46 -68.33, -58.06
